User: anonymous   Login
Location: Ajisawe
(8.4333°N, 4.3833°E)
Time: 02:19:03
(UTC+00:00)
Language:

Courier 1B Rocket - Orbit

View from above orbital plane
View from above orbital plane
View from above satellite
View from above satellite

Ground track
Ground track

The orbit data is extracted from the following two-line orbital elements,

1 00059U 60013B   21110.33625075  .00000101  00000-0  18619-4 0  9991
2 00059  28.2488  81.8059 0189055 341.9758  17.4157 13.52983808987954
Epoch (UTC): 20 April 2021 08:04:12
Eccentricity: 0.0189055
inclination: 28.2488°
perigee height: 920 km
apogee height: 1202 km
right ascension of ascending node: 81.8059°
argument of perigee: 341.9758°
revolutions per day: 13.52983808
mean anomaly at epoch: 17.4157°
orbit number at epoch: 98795

The dashed part of the orbit path shows where the satellite is in the earth's shadow,  

DLR